Miscellaneous Local Product
Issued by NWS Hastings, NE

Home | Current Version | Previous Version | Text Only | Print | Product List | Glossary Off
Versions: 1 2 3 4 5 6 7 8 9 10 11 12 13 14 15 16 17 18 19 20 21 22 23 24 25 26 27 28 29 30 31 32 33 34 35 36 37 38 39 40 41 42 43 44 45 46 47 48 49 50

000
AXUS43 KGID 230902
MISGRI

GID CWA HOURLY WEATHER ROUNDUP
NATIONAL WEATHER SERVICE HASTINGS NE
400 AM CDT WED MAY 23 2018

NOTE: "FAIR" INDICATES FEW OR NO CLOUDS BELOW 12,000 FEET WITH NO
SIGNIFICANT WEATHER AND/OR OBSTRUCTIONS TO VISIBILITY.

...SOUTH CENTRAL NEBRASKA...

CITY           SKY/WX    TMP DP  RH WIND       PRES   REMARKS
GRAND ISLAND   CLEAR     67  62  84 S13       29.96S
KEARNEY        CLEAR     67  62  84 S12       29.96R
HASTINGS       CLOUDY    70  63  78 S8        29.97S
ORD            MOCLDY    69  63  81 S6        29.93R
YORK           CLEAR     68  68 100 S10       29.98S
AURORA         CLEAR     66  63  91 S8        29.97S
LEXINGTON      PTCLDY    68  62  79 S13       29.95R
HOLDREGE       MOCLDY    67  62  84 S12       29.96S
HEBRON         CLEAR     70  65  82 S10G16    29.99S

...NEBRASKA PANHANDLE...

CITY           SKY/WX    TMP DP  RH WIND       PRES   REMARKS
CHADRON        PTCLDY    53  52  96 SE5       29.89F
ALLIANCE       PTCLDY    56  54  93 NE5       29.91S
SCOTTSBLUFF    PTCLDY    55  55 100 CALM      29.93R
SIDNEY         MOCLDY    56  51  84 NW5       29.95R

...WESTERN AND NORTH CENTRAL NEBRASKA...

CITY           SKY/WX    TMP DP  RH WIND       PRES   REMARKS
VALENTINE      MOCLDY    69  61  75 S16       29.88F
AINSWORTH      PTCLDY    68  63  84 S13G18    29.91S
ONEILL         MOCLDY    69  64  83 SE6       29.93S
BROKEN BOW     MOCLDY    69  62  78 S13       29.94R
IMPERIAL       MOCLDY    65  58  78 S7        29.93R
NORTH PLATTE   PTCLDY    68  59  73 S7        29.93R
MCCOOK         PTCLDY    66  57  72 S14       29.92F

...EASTERN NEBRASKA...

CITY           SKY/WX    TMP DP  RH WIND       PRES   REMARKS
NORFOLK        CLEAR     69  63  81 S12       29.95S
SO SIOUX CITY  CLEAR     65  62  90 SE9       29.97R
TEKAMAH        CLEAR     64  62  93 SE8       29.98R
COLUMBUS       CLEAR     71  64  78 S16       29.96F
ALBION         CLEAR     66  64  91 SE7       29.96S
OMAHA EPPLEY   PTCLDY    69  59  70 S6        29.99R
OFFUTT AFB     CLEAR     68  64  87 S7        29.99R
MILLARD        CLEAR     67  64  90 E5        29.99S
LINCOLN        CLEAR     66  62  87 S8        29.99R
NEBRASKA CITY  CLEAR     67  66  97 S8        30.01S
BEATRICE       CLEAR     70  65  85 S7        30.00S
FALLS CITY     CLEAR     66  62  87 SE6       30.01R

...NORTHERN KANSAS...

CITY           SKY/WX    TMP DP  RH WIND       PRES   REMARKS
GOODLAND       CLOUDY    63  56  78 S9        29.93S
HILL CITY      CLOUDY    68  60  75 S10G20    29.96S
NORTON         SUNNY     70  61  73 SE8       29.95S
PHILLIPSBURG   CLEAR     70  61  73 S7        29.96S
SMITH CENTER     N/A     64  61  88 SE9       29.98R
HAYS           CLOUDY    64  61  90 S9        29.98S
RUSSELL        CLOUDY    71  65  81 S16       29.97R
CONCORDIA      CLOUDY    70  65  84 S13       29.98S
SALINA         PTCLDY    70  66  87 SE9       29.99R
TOPEKA         CLEAR     68  67  96 CALM      30.01S



USA.gov is the U.S. government's official web portal to all federal, state and local government web resources and services.